This is the latest recevied weather packets stored in our database for station/object OK2VOP-6. If no packets are shown the sender has not sent any weather packets the latest 10 day(s).
| Time | Temp. | Humidity | Pressure | Rain* | Wind** | Luminosity | Snow |
|---|---|---|---|---|---|---|---|
| 1788615623 | 26.11° C | 9% | - | 0 mm | - | - | - |
| 1788614419 | 26.11° C | 8% | - | 0 mm | - | - | - |
| 1788613214 | 25.56° C | 11% | - | 0 mm | - | - | - |
| 1788612009 | 25.56° C | 11% | - | 0 mm | - | - | - |
| 1788610804 | 25.56° C | 14% | - | 0 mm | - | - | - |
| 1788609599 | 25° C | 16% | - | 0 mm | - | - | - |
| 1788608395 | 25° C | 18% | - | 0 mm | - | - | - |
| 1788607189 | 23.89° C | 22% | - | 0 mm | - | - | - |
| 1788605984 | 22.78° C | 28% | - | 0 mm | - | - | - |
| 1788604780 | 22.22° C | 31% | - | 0 mm | - | - | - |
| 1788603575 | 21.67° C | 35% | - | 0 mm | - | - | - |
| 1788602370 | 20.56° C | 36% | - | 0 mm | - | - | - |
| 1788601165 | 20.56° C | 40% | - | 0 mm | - | - | - |
| 1788599960 | 20° C | 44% | - | 0 mm | - | - | - |
| 1788598756 | 19.44° C | 47% | - | 0 mm | - | - | - |
| 1788597551 | 18.33° C | 52% | - | 0 mm | - | - | - |
| 1788596346 | 17.78° C | 54% | - | 0 mm | - | - | - |
| 1788595141 | 16.67° C | 54% | - | 0 mm | - | - | - |
| 1788593937 | 16.67° C | 57% | - | 0.25 mm | - | - | - |
| 1788592732 | 16.67° C | 56% | - | 0.25 mm | - | - | - |
| 1788591528 | 16.67° C | 55% | - | 0.25 mm | - | - | - |
| 1788590322 | 16.67° C | 54% | - | 0 mm | - | - | - |
| 1788589117 | 16.67° C | 56% | - | 0 mm | - | - | - |
| 1788587913 | 17.22° C | 60% | - | 0 mm | - | - | - |
| 1788586708 | 17.22° C | 62% | - | 0.25 mm | - | - | - |
* Rain latest hour (hover to see other rain measurements)
** Current wind speed in m/s (hover to see current wind gust speed)